Temp
6 5 5 5 5 5 5 3 4 3 3 2 5 4 1 0 -0 -1 -0 -0 2 2 1 1 1 0 -0 -2 -2 -3 -4 -8 -9 -8 -13 -11 -11 -11 -11 -13 -13 -14 -14 -11
5 4 5 5 5 4 3 2 3 3 3 4 4 1 1 0 -0 0 -0 1 0 0 1 -1 1 1 -2 -3 -3 -4 -4 -8 -8 -8 -12 -9 -11 -13 -14 -16 -16 -15 -13 -10
5 5 5 5 5 4 3 2 2 3 3 3 3 3 3 1 -1 -0 -0 0 -0 -1 -1 -0 -2 -1 -3 -3 -3 -4 -5 -5 -5 -5 -5 -5 -8 -10 -14 -15 -14 -14 -11 -10
5 5 5 4 5 5 4 2 2 1 2 3 2 1 3 2 1 -1 -1 -0 -0 -1 -1 -0 -1 -1 -2 -4 -4 -4 -5 -9 -6 -6 -4 -4 -4 -5 -12 -14 -15 -12 -13 -13
4 4 5 4 4 4 3 2 1 1 1 1 1 2 3 2 1 -1 -1 -1 1 -0 -2 -2 -4 -3 -1 -2 -5 -5 -5 -9 -5 -6 -3 -3 -4 -3 -6 -11 -14 -12 -11 -11
4 4 4 5 3 4 2 1 0 -0 2 2 -0 2 3 3 2 1 0 -1 0 -0 -0 -2 -2 -3 -2 -2 -4 -6 -6 -8 -7 -7 -2 -4 -4 -4 -4 -7 -11 -13 -12 -11
3 3 3 4 3 4 2 0 -0 -1 0 0 1 2 1 1 1 0 -1 -1 -0 -3 -3 -3 -4 -5 -5 -4 -4 -3 -6 -8 -7 -8 -6 -6 -4 -4 -5 -4 -6 -9 -8 -8
3 3 3 3 3 3 2 1 -0 -1 -2 1 1 2 1 1 0 -1 -1 -2 -3 -3 -4 -5 -5 -5 -5 -5 -5 -5 -6 -9 -10 -10 -8 -4 -1 -4 -7 -7 -6 -5 -6 -6
3 3 3 3 3 2 2 1 -1 -1 -3 -0 0 0 1 -1 -0 -1 -3 -4 -5 -4 -3 -3 -3 -1 -3 -5 -7 -7 -7 -10 -11 -8 -9 -4 -5 -5 -5 -6 -8 -4 -3 -4
3 3 3 3 2 1 1 1 -1 -2 -2 -0 -0 -1 -0 -0 -1 -2 -3 -5 -6 -5 -4 -2 -2 -1 -3 -4 -5 -9 -9 -10 -11 -9 -7 -6 -4 -6 -6 -6 -3 -2 -3 -3
2 3 2 2 2 1 1 0 -1 -2 -3 -1 -1 -1 -1 -1 -1 -2 -3 -5 -6 -6 -4 -3 -1 -3 -5 -6 -4 -7 -7 -8 -9 -7 -8 -7 -6 -8 -7 -4 -3 -3 -3 -4
1 2 2 2 2 1 -0 -1 -2 -3 -4 -1 -1 -2 -2 -2 -2 -1 -3 -4 -4 -3 -4 -3 -4 -3 -7 -6 -4 -5 -7 -6 -5 -6 -5 -5 -5 -4 -2 -3 -4 -4 -5 -5
3 2 2 2 2 1 -1 -2 -2 -3 -5 -3 -3 -1 -2 -2 -3 -3 -3 -4 -3 -3 -4 -4 -5 -6 -5 -6 -6 -5 -9 -7 -10 -8 -7 -6 -3 -2 -3 -3 -3 -4 -6 -6
3 2 2 2 1 0 -1 -2 -3 -4 -5 -6 -2 -1 -2 -3 -3 -5 -5 -4 -4 -5 -5 -5 -7 -5 -3 -7 -6 -7 -6 -8 -11 -10 -6 -5 -4 -4 -3 -4 -5 -4 -4 -5
2 2 1 1 0 -0 -2 -3 -3 -4 -5 -5 -3 -2 -5 -6 -6 -6 -6 -6 -6 -6 -6 -8 -8 -5 -7 -7 -11 -9 -7 -9 -7 -6 -4 -4 -4 -3 -3 -4 -4 -5 -5 -5
1 1 1 0 -0 -1 -3 -4 -3 -4 -5 -6 -6 -5 -7 -7 -8 -8 -8 -8 -8 -7 -7 -6 -6 -8 -9 -9 -7 -5 -5 -4 -3 -4 -4 -4 -4 -5 -4 -5 -5 -6 -6 -6
-0 -0 -0 -1 -1 -1 -3 -2 -4 -4 -5 -6 -6 -4 -8 -9 -10 -10 -10 -9 -9 -8 -8 -8 -7 -9 -8 -9 -9 -4 -3 -3 -3 -3 -4 -6 -4 -4 -4 -5 -5 -6 -6 -7
-1 -1 -1 -2 -3 -3 -3 -4 -4 -5 -5 -6 -9 -6 -7 -9 -9 -9 -10 -9 -10 -9 -8 -9 -9 -10 -10 -10 -7 -6 -4 -4 -4 -3 -4 -4 -5 -6 -6 -6 -7 -6 -6 -7
-2 -2 -3 -3 -3 -4 -4 -4 -6 -7 -6 -6 -6 -8 -6 -9 -8 -9 -10 -9 -9 -9 -10 -9 -10 -8 -9 -8 -7 -5 -2 -3 -1 -2 -4 -5 -5 -4 -5 -6 -6 -6 -6 -7
-3 -3 -3 -4 -5 -4 -5 -6 -8 -9 -8 -8 -8 -6 -8 -8 -9 -9 -9 -10 -9 -11 -10 -11 -11 -10 -8 -7 -5 -3 -3 -3 -3 -4 -3 -3 -4 -4 -5 -6 -7 -7 -7 -8
-5 -4 -4 -4 -4 -5 -6 -7 -8 -7 -9 -8 -7 -7 -8 -7 -10 -8 -8 -10 -10 -12 -11 -11 -9 -8 -7 -4 -4 -1 -1 -2 -2 -2 -2 -4 -6 -6 -6 -7 -7 -8 -8 -9
-5 -5 -5 -5 -6 -7 -8 -8 -6 -9 -8 -5 -6 -7 -7 -8 -8 -8 -11 -10 -12 -12 -12 -13 -11 -7 -3 -3 -2 -1 -2 -2 -2 -3 -3 -4 -5 -6 -7 -7 -7 -8 -9 -10
-4 -5 -5 -5 -6 -8 -7 -5 -6 -6 -4 -6 -7 -8 -8 -9 -10 -10 -11 -12 -11 -12 -16 -12 -8 -4 -2 -1 -1 -1 -1 -2 -3 -3 -3 -4 -5 -6 -7 -7 -7 -8 -9 -10
-6 -5 -5 -6 -8 -8 -6 -6 -6 -4 -5 -7 -8 -8 -9 -8 -10 -9 -8 -10 -12 -12 -13 -7 -6 -1 -1 -1 -2 -2 -2 -3 -4 -4 -5 -5 -5 -6 -7 -8 -8 -9 -9 -10
-6 -5 -6 -6 -3 -4 -4 -4 -5 -5 -5 -7 -9 -9 -8 -8 -9 -9 -9 -11 -12 -11 -7 -4 -1 -0 -0 -1 -1 -3 -4 -4 -5 -5 -5 -6 -7 -7 -8 -8 -9 -10 -11 -11
-6 -6 -5 -4 -6 -4 -3 -4 -4 -4 -6 -7 -8 -7 -7 -7 -8 -9 -11 -9 -8 -7 -7 -1 -0 -0 -1 -2 -1 -3 -4 -5 -5 -6 -6 -7 -8 -8 -9 -10 -10 -11 -12 -12
-6 -5 -5 -5 -5 -5 -4 -4 -4 -5 -7 -8 -7 -6 -6 -8 -7 -9 -8 -8 -7 -1 -1 -0 -1 -2 -2 -2 -2 -3 -4 -5 -6 -7 -8 -8 -9 -9 -10 -11 -11 -12 -13 -13
Height
1567 1563 1559 1554 1548 1542 1536 1533 1532 1532 1531 1531 1527 1527 1530 1531 1531 1532 1532 1532 1530 1529 1531 1532 1531 1532 1532 1536 1538 1539 1541 1549 1548 1536 1539 1537 1538 1540 1544 1561 1561 1558 1558 1520
1566 1561 1559 1554 1548 1542 1535 1534 1533 1532 1531 1529 1527 1531 1531 1531 1531 1530 1532 1531 1532 1533 1532 1536 1529 1530 1534 1535 1538 1539 1539 1546 1548 1534 1546 1536 1539 1541 1544 1553 1556 1560 1558 1514
1564 1561 1559 1555 1549 1544 1539 1536 1536 1533 1532 1531 1531 1528 1527 1529 1530 1531 1531 1531 1532 1533 1532 1532 1534 1531 1534 1535 1537 1538 1539 1537 1532 1530 1516 1516 1528 1532 1541 1546 1555 1545 1526 1501
1562 1559 1557 1554 1549 1545 1542 1540 1540 1538 1535 1532 1531 1531 1526 1526 1528 1531 1531 1531 1530 1530 1532 1528 1530 1529 1531 1534 1536 1537 1539 1544 1528 1521 1511 1508 1506 1508 1528 1537 1534 1533 1516 1512
1562 1559 1554 1553 1549 1546 1543 1543 1542 1539 1534 1533 1532 1529 1524 1524 1525 1528 1528 1530 1525 1527 1529 1526 1533 1529 1527 1528 1535 1535 1535 1542 1525 1514 1497 1497 1497 1493 1500 1516 1524 1518 1507 1502
1562 1558 1554 1552 1548 1546 1545 1543 1542 1540 1533 1531 1533 1527 1523 1522 1523 1523 1522 1523 1525 1523 1522 1522 1523 1524 1525 1526 1529 1533 1534 1537 1530 1519 1496 1497 1493 1480 1481 1490 1495 1500 1507 1485
1561 1558 1554 1552 1548 1546 1545 1544 1542 1541 1534 1531 1530 1527 1527 1524 1524 1524 1523 1522 1522 1522 1522 1522 1522 1523 1524 1525 1526 1527 1529 1536 1533 1527 1507 1508 1475 1472 1473 1473 1474 1479 1476 1471
1560 1556 1554 1550 1548 1546 1544 1543 1543 1541 1536 1529 1526 1525 1523 1523 1522 1522 1521 1521 1521 1521 1522 1523 1522 1522 1524 1524 1526 1527 1529 1534 1543 1541 1526 1486 1464 1472 1477 1479 1470 1463 1466 1463
1556 1554 1552 1548 1546 1545 1543 1541 1540 1540 1538 1525 1524 1524 1522 1522 1519 1519 1519 1519 1519 1521 1521 1520 1522 1510 1511 1519 1528 1529 1530 1533 1542 1531 1533 1494 1469 1469 1471 1472 1479 1457 1458 1460
1551 1550 1549 1547 1544 1542 1540 1539 1538 1538 1535 1522 1522 1522 1520 1519 1519 1518 1517 1517 1518 1520 1518 1517 1512 1506 1508 1512 1514 1528 1532 1535 1538 1531 1520 1486 1462 1466 1470 1479 1461 1455 1456 1457
1546 1545 1545 1544 1542 1540 1538 1537 1534 1535 1531 1519 1516 1516 1515 1515 1516 1515 1516 1518 1516 1519 1518 1512 1501 1507 1508 1510 1499 1506 1512 1520 1520 1514 1515 1495 1461 1469 1473 1454 1452 1453 1454 1454
1540 1541 1541 1540 1539 1538 1535 1534 1533 1531 1529 1519 1513 1510 1509 1509 1510 1511 1511 1510 1508 1508 1510 1507 1505 1502 1506 1504 1499 1493 1504 1492 1491 1492 1470 1454 1453 1448 1448 1448 1449 1450 1450 1450
1534 1535 1537 1537 1535 1533 1533 1532 1530 1528 1522 1512 1506 1502 1501 1500 1502 1503 1506 1504 1504 1503 1503 1504 1504 1505 1495 1501 1494 1484 1484 1481 1488 1483 1448 1446 1446 1445 1446 1446 1446 1446 1445 1445
1530 1533 1535 1534 1533 1531 1529 1528 1527 1527 1526 1519 1503 1500 1497 1496 1496 1496 1497 1498 1500 1501 1502 1502 1502 1500 1491 1489 1482 1483 1473 1476 1477 1472 1449 1443 1438 1439 1440 1441 1441 1441 1441 1440
1536 1534 1534 1533 1531 1529 1527 1525 1523 1522 1526 1517 1503 1496 1491 1490 1491 1491 1493 1494 1496 1498 1500 1500 1499 1493 1492 1484 1484 1473 1459 1458 1462 1451 1440 1441 1438 1437 1436 1436 1437 1437 1436 1435
1537 1537 1534 1531 1530 1528 1526 1522 1521 1519 1519 1519 1507 1494 1487 1487 1487 1488 1490 1491 1493 1494 1494 1492 1490 1488 1490 1487 1472 1443 1441 1440 1440 1436 1435 1436 1435 1434 1434 1431 1431 1431 1430 1430
1536 1535 1533 1530 1527 1526 1526 1524 1520 1517 1517 1516 1505 1489 1486 1485 1486 1487 1488 1489 1491 1492 1491 1488 1486 1486 1487 1481 1465 1432 1433 1434 1435 1435 1435 1431 1428 1427 1426 1426 1425 1425 1425 1424
1534 1531 1528 1525 1522 1520 1519 1517 1516 1515 1514 1512 1506 1488 1485 1484 1484 1486 1486 1487 1488 1488 1485 1483 1482 1484 1481 1469 1430 1431 1430 1430 1429 1428 1428 1425 1424 1422 1420 1421 1419 1418 1416 1416
1532 1528 1524 1520 1516 1515 1514 1512 1510 1509 1514 1505 1496 1492 1485 1485 1483 1483 1484 1484 1484 1484 1481 1478 1479 1471 1461 1429 1425 1423 1422 1424 1423 1422 1422 1421 1418 1415 1414 1414 1413 1411 1410 1409
1528 1525 1523 1518 1516 1514 1512 1504 1505 1506 1507 1504 1496 1490 1489 1488 1484 1482 1483 1483 1481 1482 1476 1475 1473 1450 1425 1419 1417 1419 1420 1421 1422 1420 1416 1415 1412 1410 1409 1407 1407 1405 1404 1403
1528 1527 1522 1517 1514 1512 1508 1506 1505 1503 1503 1499 1494 1490 1486 1485 1486 1481 1480 1477 1477 1483 1474 1475 1460 1440 1415 1409 1410 1414 1417 1418 1417 1415 1412 1410 1407 1405 1403 1402 1400 1399 1398 1397
1531 1528 1521 1515 1511 1508 1509 1505 1502 1501 1497 1492 1490 1487 1485 1483 1481 1481 1479 1477 1479 1480 1473 1475 1459 1422 1412 1411 1411 1414 1415 1414 1411 1409 1405 1402 1399 1397 1396 1394 1394 1393 1392 1392
1526 1525 1521 1517 1512 1511 1508 1503 1499 1496 1491 1489 1489 1488 1485 1480 1481 1479 1478 1479 1475 1473 1479 1463 1432 1414 1413 1413 1413 1412 1411 1408 1405 1401 1398 1395 1392 1391 1389 1388 1387 1386 1386 1386
1528 1527 1522 1517 1511 1506 1498 1497 1495 1493 1489 1487 1486 1483 1483 1478 1478 1472 1468 1468 1471 1471 1473 1439 1419 1411 1411 1412 1412 1409 1406 1402 1399 1394 1391 1388 1386 1384 1383 1383 1382 1381 1381 1382
1530 1527 1520 1506 1498 1497 1496 1494 1491 1489 1486 1484 1483 1480 1477 1472 1473 1467 1465 1468 1468 1454 1433 1417 1408 1409 1410 1409 1406 1404 1400 1395 1390 1387 1384 1381 1379 1378 1378 1378 1377 1377 1378 1379
1524 1518 1509 1501 1499 1494 1492 1490 1487 1484 1481 1479 1481 1475 1470 1461 1458 1460 1458 1452 1443 1423 1413 1405 1405 1404 1402 1399 1397 1395 1391 1388 1383 1380 1378 1375 1374 1373 1373 1372 1374 1374 1375 1377
1514 1505 1501 1500 1495 1490 1487 1484 1481 1480 1478 1478 1474 1469 1457 1449 1444 1447 1438 1436 1417 1408 1406 1403 1401 1398 1394 1392 1388 1386 1383 1380 1377 1374 1372 1370 1369 1369 1368 1369 1370 1372 1373 1376
Wind_Speed
23 26 27 28 30 32 23 6 3 3 4 2 3 0 2 2 2 0 0 2 2 1 2 3 2 2 3 6 4 2 4 0 5 5 2 2 2 1 3 3 5 3 4 6
22 22 26 27 29 28 26 8 4 3 1 2 1 1 1 2 2 3 3 2 1 3 1 2 4 1 5 8 3 1 4 3 5 4 5 1 3 4 3 4 2 6 3 6
23 23 24 26 27 26 20 6 3 2 2 3 2 1 2 2 3 1 2 0 1 2 3 5 3 3 3 6 5 1 2 3 6 5 6 4 3 6 5 5 2 3 8 10
20 21 22 25 27 26 16 7 3 2 3 2 4 0 1 2 2 3 5 3 7 5 2 5 4 6 4 8 5 4 2 4 6 11 17 16 16 12 12 9 6 5 6 5
17 21 23 23 24 24 11 6 5 5 7 7 5 3 3 2 2 6 4 4 4 8 5 5 4 3 4 2 6 4 4 4 6 6 11 5 11 10 9 15 4 11 14 17
18 19 22 23 21 21 6 10 6 4 5 1 2 2 3 1 2 7 1 8 2 7 7 4 3 4 7 3 6 6 4 1 4 5 7 13 10 8 13 6 5 7 6 11
19 19 21 22 20 21 15 11 7 2 3 2 3 3 2 4 6 3 2 6 4 2 2 4 2 2 2 6 7 7 2 3 3 5 8 2 5 4 2 10 6 12 8 9
20 18 21 22 18 18 16 11 5 3 4 5 10 8 6 8 6 4 5 4 4 3 1 1 2 2 2 5 0 3 2 1 3 1 3 10 1 3 4 5 7 9 14 13
24 22 21 19 20 16 16 13 6 4 5 3 5 4 3 2 3 2 3 4 6 5 2 2 2 3 2 3 5 1 4 3 2 1 2 5 3 5 5 7 4 7 10 7
22 25 24 20 19 15 14 11 8 5 7 8 5 6 3 3 2 2 2 3 4 7 2 2 3 3 1 3 5 5 3 3 6 6 5 8 4 11 8 4 4 10 11 11
19 21 24 21 20 17 14 12 9 7 7 19 17 12 12 8 6 2 5 1 3 2 2 2 3 2 3 0 3 6 8 7 4 4 4 9 17 7 5 4 5 6 6 9
19 16 19 22 18 18 14 12 11 11 13 18 26 26 24 19 18 7 8 3 4 9 2 1 2 2 2 1 3 2 2 7 4 8 6 2 28 9 19 8 8 9 13 12
18 11 15 18 16 17 14 13 14 16 11 21 12 11 10 16 22 22 8 6 9 6 7 2 1 5 1 3 6 4 4 6 3 3 5 12 29 35 30 28 30 28 22 21
7 5 10 15 15 15 15 14 17 14 9 6 8 10 15 13 13 20 25 21 8 5 6 3 2 2 2 3 1 3 3 10 5 6 20 28 26 22 28 25 16 14 13 15
10 7 10 14 15 16 17 19 23 17 9 6 13 25 23 14 13 13 17 17 16 8 3 3 3 4 1 3 1 5 12 7 6 8 6 7 8 8 6 6 8 13 15 17
13 14 14 17 17 16 11 6 2 2 4 6 4 7 9 7 7 9 8 10 12 8 6 4 5 4 3 2 4 10 23 20 28 8 8 10 18 22 22 25 29 18 18 19
16 19 20 22 22 18 10 8 11 18 17 4 8 4 3 3 5 5 6 8 6 7 4 5 3 5 7 3 5 6 15 19 23 27 30 27 21 13 11 12 13 18 22 21
18 20 22 21 18 16 15 21 22 20 10 5 3 4 4 7 4 5 6 5 6 6 4 3 4 5 5 6 16 18 17 18 21 23 22 27 28 29 29 27 26 26 25 24
20 22 24 23 9 6 8 15 17 13 11 5 6 2 3 6 3 3 5 5 3 4 3 4 4 4 7 11 14 22 17 13 9 14 18 21 25 26 25 23 23 22 22 21
21 20 8 5 5 10 21 9 2 1 4 6 5 5 2 5 5 5 4 4 2 2 3 5 3 5 27 29 25 23 14 11 15 20 25 19 21 22 20 19 19 20 19 17
17 7 5 13 20 24 4 3 2 3 4 5 6 7 3 4 2 2 5 2 2 2 1 2 3 4 5 6 11 24 23 18 21 22 27 29 26 26 25 24 21 20 20 17
22 17 23 23 4 2 1 3 2 2 3 3 4 3 4 5 6 3 4 2 2 5 5 1 3 4 12 9 1 3 8 13 21 27 31 31 28 25 23 23 20 19 17 16
15 5 5 4 2 2 2 3 2 2 2 3 4 5 4 3 4 3 1 2 4 2 1 4 5 11 13 10 7 13 16 21 28 30 28 30 26 24 22 20 18 18 15 15
4 4 6 4 3 4 4 2 2 8 8 10 9 5 5 4 3 4 4 1 0 2 2 6 3 9 3 6 16 20 24 26 26 27 27 26 24 21 19 18 16 14 13 12
4 4 5 5 8 8 15 18 12 15 19 13 5 7 5 4 4 3 1 1 5 6 5 3 10 3 7 23 32 30 29 28 31 28 25 25 20 17 16 15 13 11 10 10
5 8 7 11 7 16 13 17 22 21 15 6 6 5 3 6 4 4 7 3 6 4 3 13 8 13 21 24 29 34 29 30 29 23 25 21 16 15 14 10 9 9 10 10
6 9 14 20 25 22 29 28 28 18 7 3 5 5 10 1 3 4 4 5 4 6 14 23 26 29 29 32 34 32 28 30 24 23 20 16 14 13 9 8 9 9 10 10
Wind_Direction
349 350 350 355 353 351 355 20 296 307 325 288 203 279 96 179 169 266 235 286 332 327 35 287 252 263 164 146 150 270 107 280 273 235 268 359 68 189 131 124 286 234 184 273
343 357 350 351 354 351 354 350 284 327 301 315 123 83 223 267 174 199 187 229 287 48 267 290 221 182 103 157 204 351 130 223 302 307 346 284 212 190 144 102 76 228 137 267
350 350 351 354 359 359 356 7 336 322 283 314 315 350 202 211 227 244 190 70 111 134 227 213 283 245 144 184 215 177 129 265 218 230 237 328 194 165 178 144 156 219 231 278
353 347 353 357 0 0 5 8 11 344 318 27 327 193 179 183 242 223 203 211 223 190 254 199 216 217 180 185 209 184 236 257 246 261 275 278 269 251 177 193 203 178 253 295
349 348 354 350 356 358 13 6 348 328 282 303 291 204 232 239 155 166 202 230 173 212 207 196 221 80 193 252 153 205 168 278 314 281 264 222 266 251 197 206 214 258 263 278
340 348 355 349 356 356 5 343 331 312 278 321 340 249 297 298 153 207 194 202 241 224 239 274 287 299 257 264 175 196 186 306 333 267 340 307 281 251 209 199 171 163 186 231
336 336 348 348 356 352 353 348 333 308 281 183 229 300 309 284 245 274 200 206 206 208 179 305 324 92 284 264 251 239 194 159 252 283 313 317 228 143 82 209 205 204 257 264
321 325 337 343 343 343 345 345 322 274 274 287 299 291 261 279 261 248 233 214 219 183 38 325 294 181 194 193 211 189 252 102 291 266 288 283 281 179 153 157 275 208 221 250
299 312 317 331 334 333 337 343 327 268 285 238 265 291 277 274 227 193 186 227 202 193 248 217 253 256 151 188 167 207 241 101 142 276 270 262 215 148 100 87 284 207 206 237
298 298 305 312 324 323 333 333 326 285 264 276 249 226 233 214 264 279 153 187 174 180 201 226 228 254 56 209 191 168 173 198 214 225 259 281 192 147 135 69 240 187 209 231
283 292 292 298 316 314 323 326 319 291 264 278 270 257 237 236 212 224 169 101 200 155 229 235 236 206 210 148 192 176 174 171 203 201 239 269 138 116 165 191 155 182 217 242
279 283 287 289 306 317 322 317 315 306 276 280 288 282 269 255 247 231 207 260 178 198 209 267 327 259 144 192 269 9 261 198 192 192 226 192 188 220 219 234 259 257 281 278
281 280 278 288 313 317 320 312 317 319 306 304 277 287 272 251 242 236 220 226 219 211 209 325 300 245 91 205 230 208 253 163 211 39 281 240 240 247 253 267 280 286 285 280
296 282 295 294 310 320 323 314 313 311 302 281 282 289 285 276 248 231 228 233 226 226 206 218 236 234 218 255 251 224 198 147 191 264 278 281 278 266 257 270 273 278 281 278
16 342 298 310 323 321 319 321 301 290 246 285 291 295 285 273 248 234 231 231 232 214 193 215 232 253 289 243 6 240 186 195 182 226 230 234 272 276 244 249 277 285 278 277
340 325 322 324 323 318 308 296 353 14 201 301 293 284 277 285 229 220 218 215 205 200 193 206 234 233 211 263 253 243 217 217 216 245 246 263 281 285 278 281 290 279 275 275
344 334 329 328 324 312 288 280 291 295 298 264 285 243 260 136 154 182 193 207 205 203 229 225 232 191 204 256 249 257 236 246 247 249 265 283 289 281 289 282 284 288 288 280
332 326 324 322 311 294 268 281 284 280 274 235 260 266 217 187 186 191 191 185 206 222 236 217 215 169 218 256 246 252 254 264 263 261 265 273 283 286 287 287 288 291 290 291
325 323 324 306 266 248 265 296 285 262 227 253 228 247 299 177 169 187 180 192 211 214 241 210 172 203 224 230 240 253 248 229 263 291 292 290 287 292 290 285 288 289 299 296
342 330 313 291 271 300 316 289 318 277 243 255 272 289 308 201 186 206 182 189 250 239 208 156 226 256 258 253 250 250 249 252 272 282 292 299 298 299 295 292 292 293 300 293
3 322 274 282 305 306 279 294 217 195 246 225 249 282 284 256 219 243 211 194 179 267 213 204 255 264 247 296 243 238 250 273 285 292 297 290 288 292 284 285 285 292 295 287
325 294 282 290 289 279 320 249 190 200 251 215 255 264 249 265 224 267 213 242 94 246 151 270 261 256 290 294 260 192 288 294 307 310 302 306 290 296 286 284 287 292 289 279
341 315 280 287 268 322 192 288 264 276 227 265 310 299 272 263 222 253 202 222 225 130 74 236 238 279 296 309 328 298 295 298 304 303 301 305 297 292 284 281 289 291 281 271
327 303 288 206 239 246 213 224 256 287 275 298 283 241 229 225 218 209 242 123 88 256 254 237 248 280 341 340 316 299 303 307 302 301 300 302 298 291 281 283 289 284 270 260
273 262 252 237 254 279 289 290 287 287 288 279 282 253 224 203 243 212 113 187 247 212 231 223 247 272 300 313 311 311 312 314 313 305 302 299 289 276 276 281 283 267 250 238
233 234 261 277 289 288 286 289 289 296 276 270 244 266 242 236 199 186 220 202 228 242 220 241 264 273 283 306 324 317 309 316 313 306 299 291 278 276 279 278 265 248 232 221
234 242 249 258 269 271 280 287 288 280 253 235 205 245 225 255 190 221 201 218 242 283 277 292 293 299 306 313 317 304 306 316 309 302 292 280 277 274 272 258 245 221 210 206